F5ZQC-13 Weather Reports


Display with metric or nautical units.
time (UTC)temp
F
wind
direction
speed
MPH
gust
MPH
rain 1hr
in
rain 24hr
in
rain mn
in
humidity
%
barometer
mb
20260902232706 -29 292 7.0 7.0 0.00 0.00 0.00 36 5318.5
20260902231655 -21 315 6.0 6.0 0.00 0.00 0.00 35 5318.5
20260902231453 715 292 4.0 6.0 0.00 0.00 0.00 35 1799.3
20260902230847 -10 292 6.0 6.0 0.00 0.00 0.00 35 5318.5
20260902230646 -15 315 6.0 6.0 0.00 0.00 0.00 35 5318.5
20260902230444 715 292 5.0 6.0 0.00 0.00 0.00 34 4420.8
20260902230042 -31 292 5.0 6.0 0.00 0.00 0.00 35 5318.5
20260902225840 952 292 5.0 6.0 0.00 0.00 0.00 35 5318.5
20260902224828 299 292 5.0 6.0 0.00 0.00 0.00 35 5318.5
20260902224021 -24 315 5.0 5.0 0.00 0.00 0.00 34 4010.3
20260902222401 -24 337 4.0 4.0 0.00 0.00 0.00 33 5318.5
20260902221354 715 337 4.0 4.0 0.00 0.00 0.00 33 1799.4
20260902215941 306 292 1.0 1.0 0.00 0.00 0.00 32 5318.5
20260902215739 -25 292 0.0 3.0 0.00 0.00 0.00 32 5318.5
20260902214924 -15 292 3.0 4.0 0.00 0.00 0.00 32 5318.5
20260902213311 630 292 1.0 2.0 0.00 0.00 0.00 31 5318.5
20260902212702 -31 270 1.0 1.0 0.00 0.00 0.00 31 5318.5
20260902211853 322 315 1.0 3.0 0.00 0.00 0.00 31 5318.5
20260902210842 -26 315 3.0 5.0 0.00 0.00 0.00 31 5318.5
20260902210640 -16 292 4.0 5.0 0.00 0.00 0.00 31 5318.5
20260902210438 -20 270 4.0 4.0 0.00 0.00 0.00 30 5318.5
20260902210235 -11 315 2.0 5.0 0.00 0.00 0.00 31 5318.5
20260902210034 -15 303 3.0 5.0 0.00 0.00 0.00 31 5318.5
20260902205831 715 270 5.0 5.0 0.00 0.00 0.00 30 4420.8
20260902205427 714 315 4.0 5.0 0.00 0.00 0.00 29 4420.7
20260902205225 927 315 3.0 9.0 0.00 0.00 0.00 29 5318.5
20260902204821 147 315 8.0 9.0 0.00 0.00 0.00 27 5318.5
20260902204417 203 315 0.0 3.0 0.00 0.00 0.00 27 5318.5
20260902204013 258 270 2.0 4.0 0.00 0.00 0.00 28 5318.5
20260902203611 714 270 2.0 3.0 0.00 0.00 0.00 27 4420.9
20260902203407 274 270 1.0 3.0 0.00 0.00 0.00 27 5318.5
20260902203204 -28 292 3.0 3.0 0.00 0.00 0.00 27 5318.5
20260902203003 715 292 3.0 4.0 0.00 0.00 0.00 27 1799.4
20260902202840 -23 337 4.0 4.0 0.00 0.00 0.00 27 5318.5
20260902202801 -23 337 4.0 4.0 0.00 0.00 0.00 27 5318.5
20260902202558 -27 292 3.0 3.0 0.00 0.00 0.00 26 5318.5
20260902202356 -17 292 3.0 3.0 0.00 0.00 0.00 26 5318.5
20260902202154 -21 292 3.0 4.0 0.00 0.00 0.00 27 5318.5
20260902201953 -12 292 3.0 4.0 0.00 0.00 0.00 26 5318.5
20260902201750 -31 292 3.0 3.0 0.00 0.00 0.00 27 5318.5
20260902201551 -65 292 1.0 3.0 0.00 0.00 0.00 26 5318.5
20260902201348 715 292 3.0 3.0 0.00 0.00 0.00 26 1799.4
20260902200740 -31 292 0.0 2.0 0.00 0.00 0.00 27 5318.5
20260902200540 714 292 1.0 3.0 0.00 0.00 0.00 26 4420.7
20260902200336 715 292 2.0 4.0 0.00 0.00 0.00 26 1799.3
20260902200134 193 292 3.0 4.0 0.00 0.00 0.00 26 5318.5
20260902195932 714 292 4.0 4.0 0.00 0.00 0.00 25 4420.8
20260902194922 -29 270 1.0 3.0 0.00 0.00 0.00 26 5318.5
20260902194719 320 270 2.0 3.0 0.00 0.00 0.00 25 5318.5
20260902194316 -27 270 2.0 3.0 0.00 0.00 0.00 25 5318.5
20260902193911 715 270 2.0 2.0 0.00 0.00 0.00 25 1799.1
20260902193708 -13 270 1.0 2.0 0.00 0.00 0.00 25 5318.5
20260902193307 -75 337 1.0 2.0 0.00 0.00 0.00 25 5318.5
20260902192901 -19 292 2.0 2.0 0.00 0.00 0.00 24 5318.5
20260902192658 743 292 1.0 3.0 0.00 0.00 0.00 24 5318.5
20260902192052 906 270 2.0 3.0 0.00 0.00 0.00 23 5318.5
20260902191851 184 292 3.0 3.0 0.00 0.00 0.00 23 5318.5
20260902191648 145 337 3.0 3.0 0.00 0.00 0.00 24 5318.5
20260902191446 239 337 2.0 3.0 0.00 0.00 0.00 23 5318.5
20260902191045 714 337 1.0 3.0 0.00 0.00 0.00 23 4420.7
20260902190840 256 270 2.0 2.0 0.00 0.00 0.00 23 5318.5
20260902190235 -24 292 1.0 3.0 0.00 0.00 0.00 23 5318.5
20260902190032 -28 270 2.0 3.0 0.00 0.00 0.00 22 5318.5
20260902185830 715 270 1.0 3.0 0.00 0.00 0.00 22 1799.4
20260902185425 -13 270 1.0 3.0 0.00 0.00 0.00 22 5318.5
20260902185223 -17 270 2.0 3.0 0.00 0.00 0.00 22 5318.5
20260902184618 -29 270 1.0 2.0 0.00 0.00 0.00 21 403.3
20260902184415 -67 270 1.0 2.0 0.00 0.00 0.00 21 5318.5
20260902184213 262 292 2.0 3.0 0.00 0.00 0.00 21 5318.5
20260902183404 136 303 1.0 2.0 0.00 0.00 0.00 21 5318.5
20260902183202 230 337 1.0 3.0 0.00 0.00 0.00 21 5318.5
20260902182759 715 270 0.0 3.0 0.00 0.00 0.00 21 4420.8
20260902182557 247 270 1.0 3.0 0.00 0.00 0.00 20 5318.5
20260902182354 -31 270 1.0 2.0 0.00 0.00 0.00 20 5318.5
20260902182152 715 270 1.0 4.0 0.00 0.00 0.00 20 1799.3
20260902181950 -25 270 2.0 4.0 0.00 0.00 0.00 20 5318.5
20260902181748 49 270 1.0 2.0 0.00 0.00 0.00 20 5318.5
20260902181547 -20 270 1.0 2.0 0.00 0.00 0.00 20 5318.5
20260902181344 -24 270 2.0 4.0 0.00 0.00 0.00 20 5318.5
20260902181146 -14 270 3.0 4.0 0.00 0.00 0.00 20 5318.5
20260902180940 -18 270 2.0 2.0 0.00 0.00 0.00 19 5318.5
20260902180738 -93 270 1.0 2.0 0.00 0.00 0.00 18 5318.5
20260902180334 -31 270 1.0 4.0 0.00 0.00 0.00 18 5318.5
20260902175929 -31 270 3.0 5.0 0.00 0.00 0.00 18 5318.5
20260902175728 111 270 4.0 5.0 0.00 0.00 0.00 18 5318.5
20260902175525 722 270 3.0 4.0 0.00 0.00 0.00 18 5318.5
20260902174919 715 270 2.0 5.0 0.00 0.00 0.00 18 1799.3
20260902174717 182 270 3.0 6.0 0.00 0.00 0.00 17 5318.5
20260902174525 715 292 2.0 6.0 0.00 0.00 0.00 18 1799.3
20260902173908 293 270 4.0 5.0 0.00 0.00 0.00 17 5318.5
20260902173507 715 270 3.0 4.0 0.00 0.00 0.00 17 4420.8
20260902172050 715 270 2.0 4.0 0.00 0.00 0.00 16 1799.3
20260902171444 101 270 2.0 3.0 0.00 0.00 0.00 16 5318.5
20260902171252 715 270 2.0 3.0 0.00 0.00 0.00 15 1799.4
20260902171040 157 270 1.0 4.0 0.00 0.00 0.00 14 5318.5
20260902170838 118 270 2.0 4.0 0.00 0.00 0.00 14 5318.5
20260902170433 -31 270 1.0 4.0 0.00 0.00 0.00 14 5318.5
20260902170307 267 270 3.0 4.0 0.00 0.00 0.00 14 5318.5
20260902165827 715 270 3.0 6.0 0.00 0.00 0.00 13 1799.4
20260902165221 715 270 2.0 3.0 0.00 0.00 0.00 13 4420.6
20260902165020 -22 270 2.0 5.0 0.00 0.00 0.00 13 5318.5
20260902164615 -16 270 4.0 7.0 0.00 0.00 0.00 14 5318.5
20260902164414 -20 270 3.0 7.0 0.00 0.00 0.00 13 5318.5
20260902164210 715 270 4.0 5.0 0.00 0.00 0.00 13 1799.4
20260902164009 -15 270 5.0 7.0 0.00 0.00 0.00 13 5318.5
20260902163806 -56 270 3.0 7.0 0.00 0.00 0.00 12 5318.5
20260902163608 -95 270 2.0 6.0 0.00 0.00 0.00 12 403.4
20260902163402 -14 315 6.0 9.0 0.00 0.00 0.00 13 5318.5
20260902163200 927 281 5.0 9.0 0.00 0.00 0.00 12 5318.5
20260902162959 538 315 8.0 10.0 0.00 0.00 0.00 13 5318.5
20260902162756 147 315 3.0 10.0 0.00 0.00 0.00 12 5318.5
20260902162352 203 270 7.0 10.0 0.00 0.00 0.00 13 5318.5
20260902161948 258 270 6.0 10.0 0.00 0.00 0.00 13 5318.5
20260902161544 313 270 8.0 9.0 0.00 0.00 0.00 13 5318.5
20260902161341 715 315 8.0 8.0 0.00 0.00 0.00 12 4420.8
20260902160940 -32 315 4.0 9.0 0.00 0.00 0.00 12 5318.5
20260902160735 715 292 7.0 12.0 0.00 0.00 0.00 12 1799.4
20260902160534 -27 315 8.0 12.0 0.00 0.00 0.00 12 5318.5
20260902155927 -12 315 7.0 9.0 0.00 0.00 0.00 12 5318.5
20260902155524 -65 292 9.0 10.0 0.00 0.00 0.00 12 5318.5
20260902155322 -10 315 5.0 10.0 0.00 0.00 0.00 13 5318.5
20260902155119 -10 315 8.0 10.0 0.00 0.00 0.00 12 5318.5
20260902154917 835 315 10.0 11.0 0.00 0.00 0.00 13 5318.5
20260902154715 446 315 6.0 11.0 0.00 0.00 0.00 12 5318.5
20260902153906 155 315 8.0 12.0 0.00 0.00 0.00 12 5318.5
20260902153704 249 315 10.0 12.0 0.00 0.00 0.00 13 5318.5
20260902153503 210 315 10.0 12.0 0.00 0.00 0.00 12 5318.5
20260902153102 265 315 7.0 10.0 0.00 0.00 0.00 13 5318.5
20260902152856 -29 315 6.0 10.0 0.00 0.00 0.00 13 5318.5
20260902152654 320 315 9.0 10.0 0.00 0.00 0.00 13 5318.5
20260902152453 -24 315 5.0 10.0 0.00 0.00 0.00 13 5318.5
20260902152048 49 315 8.0 10.0 0.00 0.00 0.00 13 5318.5
20260902151846 715 315 10.0 11.0 0.00 0.00 0.00 13 1799.3
20260902151037 -11 303 9.0 11.0 0.00 0.00 0.00 13 5318.5
20260902150835 -19 315 9.0 11.0 0.00 0.00 0.00 13 5318.5
20260902150633 743 303 8.0 11.0 0.00 0.00 0.00 13 5318.5
20260902150432 354 292 7.0 11.0 0.00 0.00 0.00 13 5318.5
20260902150027 906 315 7.0 9.0 0.00 0.00 0.00 14 5318.5
20260902145825 715 270 5.0 8.0 0.00 0.00 0.00 14 4420.8
20260902145623 715 270 7.0 7.0 0.00 0.00 0.00 14 1799.4
20260902145422 239 281 3.0 7.0 0.00 0.00 0.00 15 5318.5
20260902145017 295 270 2.0 9.0 0.00 0.00 0.00 15 5318.5
20260902144815 715 270 7.0 9.0 0.00 0.00 0.00 16 1799.4
20260902144411 311 270 9.0 9.0 0.00 0.00 0.00 15 5318.5
20260902144208 715 315 8.0 8.0 0.00 0.00 0.00 16 4420.8
20260902143401 715 315 6.0 13.0 0.00 0.00 0.00 16 1799.4
20260902142755 -12 292 8.0 8.0 0.00 0.00 0.00 16 5318.5
20260902142350 -67 270 4.0 9.0 0.00 0.00 0.00 16 5318.5
20260902141943 715 315 9.0 9.0 0.00 0.00 0.00 16 4420.8
20260902141539 32 270 6.0 9.0 0.00 0.00 0.00 16 5318.5
20260902141337 122 270 6.0 9.0 0.00 0.00 0.00 16 5318.5
20260902140528 233 315 10.0 11.0 0.00 0.00 0.00 16 5318.5
20260902140327 327 270 10.0 11.0 0.00 0.00 0.00 16 5318.5
20260902140124 288 292 5.0 9.0 0.00 0.00 0.00 16 5318.5
20260902135922 -27 315 6.0 9.0 0.00 0.00 0.00 17 5318.5
20260902135720 -31 315 7.0 13.0 0.00 0.00 0.00 16 5318.5
20260902135318 -25 315 5.0 8.0 0.00 0.00 0.00 16 5318.5
20260902135114 715 0 6.0 8.0 0.00 0.00 0.00 17 4420.8
20260902134911 -20 315 8.0 10.0 0.00 0.00 0.00 16 5318.5
20260902134709 -10 292 5.0 10.0 0.00 0.00 0.00 17 403.4
20260902134508 715 315 6.0 8.0 0.00 0.00 0.00 18 1799.3
20260902134308 -52 292 4.0 5.0 0.00 0.00 0.00 18 5318.5
20260902134103 -90 270 1.0 4.0 0.00 0.00 0.00 18 5318.5
20260902133901 32 315 2.0 4.0 0.00 0.00 0.00 18 5318.5
20260902133457 584 315 3.0 9.0 0.00 0.00 0.00 18 5318.5
20260902132851 207 315 6.0 9.0 0.00 0.00 0.00 19 5318.5
20260902132649 168 315 4.0 9.0 0.00 0.00 0.00 19 5318.5
20260902132447 -31 315 5.0 10.0 0.00 0.00 0.00 18 5318.5
20260902132044 318 315 8.0 8.0 0.00 0.00 0.00 20 5318.5
20260902131240 -22 270 7.0 9.0 0.00 0.00 0.00 21 5318.5
20260902131032 -26 315 7.0 7.0 0.00 0.00 0.00 21 5318.5
20260902130830 -17 270 2.0 7.0 0.00 0.00 0.00 22 5318.5
20260902130628 715 270 1.0 9.0 0.00 0.00 0.00 22 1799.4
20260902130023 -61 315 5.0 8.0 0.00 0.00 0.00 22 5318.5
20260902125823 -10 315 6.0 9.0 0.00 0.00 0.00 22 5318.5
20260902125618 -60 315 7.0 9.0 0.00 0.00 0.00 23 5318.5
20260902125214 492 315 7.0 10.0 0.00 0.00 0.00 22 5318.5
20260902124607 715 292 9.0 9.0 0.00 0.00 0.00 23 1799.3
20260902123357 -29 303 7.0 7.0 0.00 0.00 0.00 23 5318.5
20260902122749 -27 0 3.0 8.0 0.00 0.00 0.00 23 5318.5
20260902122344 -21 315 8.0 9.0 0.00 0.00 0.00 23 5318.5
20260902122143 -12 270 9.0 9.0 0.00 0.00 0.00 24 5318.5
20260902121940 -16 315 6.0 9.0 0.00 0.00 0.00 23 5318.5
20260902121738 -70 315 8.0 9.0 0.00 0.00 0.00 23 5318.5
20260902121536 -10 337 2.0 5.0 0.00 0.00 0.00 23 5318.5
20260902121334 -15 292 1.0 5.0 0.00 0.00 0.00 24 5318.5
20260902121133 789 315 4.0 9.0 0.00 0.00 0.00 24 5318.5
20260902120728 715 292 7.0 8.0 0.00 0.00 0.00 25 4420.6
20260902120526 952 315 5.0 5.0 0.00 0.00 0.00 24 5318.5
20260902120324 189 270 1.0 9.0 0.00 0.00 0.00 23 5320.2
20260902120126 150 315 8.0 9.0 0.00 0.00 0.00 25 5318.5
20260902115920 244 292 6.0 9.0 0.00 0.00 0.00 24 5318.5
20260902115718 32 292 3.0 9.0 0.00 0.00 0.00 24 5318.5
20260902115313 715 315 9.0 9.0 0.00 0.00 0.00 24 1799.4
20260902115112 -30 315 3.0 6.0 0.00 0.00 0.00 25 5318.5
20260902114909 316 315 5.0 6.0 0.00 0.00 0.00 25 5318.5
20260902114707 -24 292 3.0 6.0 0.00 0.00 0.00 26 5318.5
20260902114303 -19 315 3.0 7.0 0.00 0.00 0.00 25 5318.5
20260902113859 -13 303 5.0 8.0 0.00 0.00 0.00 25 5318.5
20260902113657 -31 326 4.0 8.0 0.00 0.00 0.00 25 5318.5
20260902113253 -11 315 1.0 9.0 0.00 0.00 0.00 25 5318.5
20260902112849 697 315 7.0 7.0 0.00 0.00 0.00 25 5318.5
20260902112444 124 292 4.0 10.0 0.00 0.00 0.00 25 5318.5
20260902112242 860 303 7.0 9.0 0.00 0.00 0.00 26 5318.5
20260902111434 196 270 6.0 9.0 0.00 0.00 0.00 27 5318.5
20260902111234 290 315 5.0 9.0 0.00 0.00 0.00 26 5318.5
20260902111031 251 315 9.0 9.0 0.00 0.00 0.00 27 5318.5
20260902110828 -30 292 4.0 7.0 0.00 0.00 0.00 27 5318.5
20260902110626 306 315 4.0 9.0 0.00 0.00 0.00 27 5318.5
20260902110424 -25 292 6.0 10.0 0.00 0.00 0.00 26 5318.5
20260902110222 -29 270 9.0 10.0 0.00 0.00 0.00 26 5318.5
20260902110020 715 270 2.0 9.0 0.00 0.00 0.00 26 1799.3
20260902105818 -23 281 8.0 9.0 0.00 0.00 0.00 26 5318.5
20260902105616 -14 315 7.0 7.0 0.00 0.00 0.00 26 5318.5
20260902105414 -18 292 7.0 7.0 0.00 0.00 0.00 26 5318.5
20260902105211 -88 292 4.0 6.0 0.00 0.00 0.00 26 5318.5
20260902105010 -12 292 6.0 9.0 0.00 0.00 0.00 26 403.3
20260902104807 715 292 6.0 9.0 0.00 0.00 0.00 26 1799.4
20260902104605 715 337 6.0 7.0 0.00 0.00 0.00 26 4480.2
20260902104403 216 292 5.0 9.0 0.00 0.00 0.00 25 5318.5
20260902104201 715 315 5.0 9.0 0.00 0.00 0.00 26 1799.4
20260902104000 768 270 7.0 9.0 0.00 0.00 0.00 26 5318.5
20260902103800 170 315 9.0 9.0 0.00 0.00 0.00 26 5318.5
20260902103605 715 315 1.0 6.0 0.00 0.00 0.00 26 1799.4
20260902102959 327 303 8.0 9.0 0.00 0.00 0.00 26 5318.5
20260902102757 288 292 6.0 8.0 0.00 0.00 0.00 26 5318.5
20260902102554 -27 315 4.0 8.0 0.00 0.00 0.00 26 5318.5
20260902102152 -21 315 6.0 8.0 0.00 0.00 0.00 27 5318.5
20260902101749 49 315 1.0 10.0 0.00 0.00 0.00 27 5318.5
20260902101546 -20 315 8.0 10.0 0.00 0.00 0.00 27 5318.5
20260902101202 714 292 1.0 9.0 0.00 0.00 0.00 27 4420.7
20260902100414 281 315 3.0 6.0 0.00 0.00 0.00 26 5318.5
20260902100210 715 315 2.0 7.0 0.00 0.00 0.00 26 4420.8
20260902095600 -31 315 5.0 7.0 0.00 0.00 0.00 25 5318.5
20260902094955 -26 315 5.0 7.0 0.00 0.00 0.00 27 5318.5
20260902094753 -16 315 4.0 7.0 0.00 0.00 0.00 26 5318.5
20260902094551 -20 315 7.0 7.0 0.00 0.00 0.00 27 5318.5
20260902093950 715 315 4.0 7.0 0.00 0.00 0.00 27 1799.4
20260902093742 -95 270 5.0 6.0 0.00 0.00 0.00 27 5318.5
20260902093541 -14 270 6.0 6.0 0.00 0.00 0.00 26 5318.5
20260902093138 538 315 6.0 9.0 0.00 0.00 0.00 26 5318.5
20260902092937 147 315 6.0 7.0 0.00 0.00 0.00 26 567.2
20260902092733 -31 315 4.0 6.0 0.00 0.00 0.00 27 5318.5
20260902092532 203 315 4.0 5.0 0.00 0.00 0.00 28 5318.5
20260902092329 164 315 5.0 5.0 0.00 0.00 0.00 27 5318.5
20260902091925 219 315 3.0 6.0 0.00 0.00 0.00 27 5318.5
20260902091721 715 315 4.0 6.0 0.00 0.00 0.00 27 1799.4
20260902091318 32 281 5.0 5.0 0.00 0.00 0.00 27 5320.2
20260902091118 -32 315 3.0 4.0 0.00 0.00 0.00 27 5318.5
20260902090711 -27 315 3.0 5.0 0.00 0.00 0.00 28 1714.1
20260902090511 -17 292 3.0 5.0 0.00 0.00 0.00 29 5318.5
20260902090308 715 270 5.0 5.0 0.00 0.00 0.00 29 4420.6
20260902085903 -15 315 2.0 3.0 0.00 0.00 0.00 29 5318.5
20260902085700 -65 315 2.0 3.0 0.00 0.00 0.00 28 5318.5
20260902084853 446 303 4.0 4.0 0.00 0.00 0.00 29 5318.5
20260902084652 715 315 3.0 5.0 0.00 0.00 0.00 29 1799.1
20260902084052 155 270 3.0 4.0 0.00 0.00 0.00 29 5318.5
20260902083641 210 315 4.0 5.0 0.00 0.00 0.00 29 5318.5
20260902083438 714 315 4.0 5.0 0.00 0.00 0.00 29 4421.0
20260902082631 -24 315 5.0 5.0 0.00 0.00 0.00 29 5318.5
20260902082427 -27 315 4.0 6.0 0.00 0.00 0.00 31 5318.5
20260902082226 715 315 3.0 6.0 0.00 0.00 0.00 30 1799.3
20260902082023 715 315 4.0 5.0 0.00 0.00 0.00 30 4420.8
20260902081822 -13 315 5.0 5.0 0.00 0.00 0.00 30 5318.5
20260902081215 -11 270 7.0 7.0 0.00 0.00 0.00 30 5318.5
20260902081013 -19 270 7.0 7.0 0.00 0.00 0.00 30 5318.5
20260902080811 743 315 6.0 7.0 0.00 0.00 0.00 31 5318.5
20260902080407 -31 315 4.0 6.0 0.00 0.00 0.00 31 5318.5
20260902080206 906 315 5.0 6.0 0.00 0.00 0.00 32 5318.5
20260902075356 201 315 3.0 3.0 0.00 0.00 0.00 34 5318.5
20260902074748 715 292 1.0 3.0 0.00 0.00 0.00 35 4420.8
20260902074141 -30 292 0.0 3.0 0.00 0.00 0.00 36 5318.5
20260902073536 -15 315 3.0 3.0 0.00 0.00 0.00 36 5318.5
20260902073334 -19 292 0.0 4.0 0.00 0.00 0.00 37 5318.5
20260902072928 -13 315 2.0 5.0 0.00 0.00 0.00 38 5318.5
20260902072322 -31 315 2.0 5.0 0.00 0.00 0.00 39 5318.5
20260902071918 676 315 2.0 4.0 0.00 0.00 0.00 40 5318.5
20260902071515 122 225 1.0 2.0 0.00 0.00 0.00 41 5318.5
20260902071312 216 337 1.0 2.0 0.00 0.00 0.00 42 5318.5
20260902070908 272 337 0.0 3.0 0.00 0.00 0.00 42 1714.1
20260902070706 715 337 1.0 5.0 0.00 0.00 0.00 42 1799.4
20260902070504 327 315 3.0 5.0 0.00 0.00 0.00 42 5318.5
20260902070301 715 315 4.0 6.0 0.00 0.00 0.00 42 1799.4
20260902065857 -31 315 5.0 5.0 0.00 0.00 0.00 43 5318.5
20260902065656 -21 315 2.0 4.0 0.00 0.00 0.00 43 5318.5
20260902064847 -10 337 2.0 3.0 0.00 0.00 0.00 42 5318.5
20260902064646 -14 281 1.0 3.0 0.00 0.00 0.00 42 5318.5
20260902064241 -90 315 2.0 3.0 0.00 0.00 0.00 42 5318.5
20260902063403 288 337 3.0 3.0 0.00 0.00 0.00 45 5318.5
20260902063004 -31 337 2.0 126.0 0.00 0.00 0.00 46 5318.5
20260902062930 584 337 126.0 126.0 0.00 0.00 0.00 45 5318.5
20260902062858 584 337 126.0 126.0 0.00 0.00 0.00 45 5318.5
20260902062717 288 337 1.0 5.0 0.00 0.00 0.00 45 5318.5
20260902062313 715 326 3.0 126.0 0.00 0.00 0.00 46 1799.3
20260902062218 584 292 126.0 126.0 0.00 0.00 0.00 46 5318.5
20260902062100 715 292 3.0 3.0 0.00 0.00 0.00 47 1799.3
20260902061653 715 292 2.0 127.0 0.00 0.00 0.00 46 1799.4
20260902061551 584 292 127.0 127.0 0.00 0.00 0.00 46 5318.5
20260902061512 715 292 3.0 5.0 0.00 0.00 0.00 47 1799.4
20260902061112 973 292 4.0 6.0 0.00 0.00 0.00 46 5318.5
20260902060845 715 292 4.0 7.0 0.00 0.00 0.00 48 1799.4
20260902060643 715 326 4.0 7.0 0.00 0.00 0.00 46 4420.6
20260902060239 715 292 4.0 126.0 0.00 0.00 0.00 48 1799.4
20260902055500 584 270 127.0 127.0 0.00 0.00 0.00 47 5318.5
20260902055130 -27 292 6.0 126.0 0.00 0.00 0.00 47 5318.5
20260902054927 715 270 5.0 126.0 0.00 0.00 0.00 47 1799.4
20260902054826 584 270 126.0 126.0 0.00 0.00 0.00 47 5318.5
20260902054818 -90 292 6.0 6.0 0.00 0.00 0.00 46 5318.5
20260902054611 32 281 4.0 6.0 0.00 0.00 0.00 47 5318.5
20260902054408 49 270 4.0 4.0 0.00 0.00 0.00 47 5318.5
20260902053646 -31 270 3.0 128.0 0.00 0.00 0.00 47 5318.5
20260902053545 584 292 128.0 128.0 0.00 0.00 0.00 47 5318.5
20260902053032 584 270 128.0 128.0 0.00 0.00 0.00 46 5318.5
20260902052931 715 326 2.0 127.0 0.00 0.00 0.00 47 4420.8
20260902052831 584 270 127.0 127.0 0.00 0.00 0.00 47 5318.5
20260902051303 288 337 1.0 4.0 0.00 0.00 0.00 44 5318.5
20260902050903 715 292 3.0 127.0 0.00 0.00 0.00 45 1799.1
20260902050649 49 292 4.0 4.0 0.00 0.00 0.00 45 5318.5
20260902050245 -27 292 3.0 125.0 0.00 0.00 0.00 44 5318.5
20260902050043 -31 292 3.0 125.0 0.00 0.00 0.00 45 5318.5
20260902045942 584 292 125.0 125.0 0.00 0.00 0.00 46 5318.5
20260902045715 272 281 3.0 5.0 0.00 0.00 0.00 46 5318.5
20260902045311 327 270 2.0 5.0 0.00 0.00 0.00 47 1714.1
20260902045109 288 292 2.0 5.0 0.00 0.00 0.00 46 5318.5
20260902044907 -27 270 1.0 128.0 0.00 0.00 0.00 45 5318.5
20260902044705 49 292 5.0 128.0 0.00 0.00 0.00 46 5318.5
20260902044604 584 292 128.0 128.0 0.00 0.00 0.00 46 5318.5
20260902044325 715 292 4.0 6.0 0.00 0.00 0.00 46 4420.8
20260902043813 -77 292 5.0 5.0 0.00 0.00 0.00 46 5318.5
20260902043405 715 270 3.0 5.0 0.00 0.00 0.00 46 4420.6
20260902043204 584 270 3.0 3.0 0.00 0.00 0.00 46 5318.5
20260902043031 32 292 1.0 3.0 0.00 0.00 0.00 46 5320.2
20260902042828 147 270 2.0 3.0 0.00 0.00 0.00 46 5318.5
20260902042626 715 270 2.0 3.0 0.00 0.00 0.00 46 1799.4
20260902042425 203 270 2.0 3.0 0.00 0.00 0.00 46 5318.5
20260902042235 -31 270 1.0 2.0 0.00 0.00 0.00 45 5318.5
20260902042023 258 270 1.0 3.0 0.00 0.00 0.00 46 5318.5
20260902041818 219 270 2.0 3.0 0.00 0.00 0.00 46 5318.5
20260902041616 313 270 2.0 3.0 0.00 0.00 0.00 45 5318.5
20260902041211 715 270 3.0 4.0 0.00 0.00 0.00 45 1799.4
20260902040808 -23 270 3.0 4.0 0.00 0.00 0.00 45 5318.5
20260902040404 -17 292 2.0 5.0 0.00 0.00 0.00 45 5318.5
20260902035959 -12 292 5.0 5.0 0.00 0.00 0.00 45 5318.5
20260902035757 714 292 3.0 5.0 0.00 0.00 0.00 45 4420.9
20260902035557 715 292 4.0 5.0 0.00 0.00 0.00 45 4420.8
20260902034746 446 292 3.0 5.0 0.00 0.00 0.00 45 5318.5
20260902034544 138 292 4.0 5.0 0.00 0.00 0.00 45 5318.5
20260902034343 998 292 4.0 5.0 0.00 0.00 0.00 45 5318.5
20260902033941 155 281 4.0 6.0 0.00 0.00 0.00 45 5318.5
20260902033736 249 292 5.0 6.0 0.00 0.00 0.00 45 5318.5
20260902033534 210 292 5.0 6.0 0.00 0.00 0.00 44 5318.5
20260902033131 265 292 5.0 6.0 0.00 0.00 0.00 44 5318.5
20260902032928 -29 292 5.0 6.0 0.00 0.00 0.00 44 5318.5
20260902032726 715 292 4.0 5.0 0.00 0.00 0.00 44 4420.9
20260902032524 -24 292 5.0 5.0 0.00 0.00 0.00 44 5318.5
20260902032322 -27 292 5.0 5.0 0.00 0.00 0.00 44 5318.5
20260902032121 -18 292 4.0 4.0 0.00 0.00 0.00 44 5318.5
20260902031919 -22 292 4.0 4.0 0.00 0.00 0.00 44 5318.5
20260902031715 -13 281 3.0 4.0 0.00 0.00 0.00 44 5318.5
20260902031312 -75 292 4.0 4.0 0.00 0.00 0.00 44 5318.5
20260902030907 -19 337 4.0 5.0 0.00 0.00 0.00 44 5318.5
20260902030705 715 337 4.0 5.0 0.00 0.00 0.00 43 1799.3
20260902030503 354 337 5.0 6.0 0.00 0.00 0.00 44 403.3
20260902030301 129 292 6.0 6.0 0.00 0.00 0.00 44 5318.5
20260902025858 184 292 5.0 6.0 0.00 0.00 0.00 44 5318.5
20260902025655 145 292 5.0 6.0 0.00 0.00 0.00 43 5318.5
20260902025453 239 292 6.0 6.0 0.00 0.00 0.00 43 5318.5
20260902025251 201 292 5.0 6.0 0.00 0.00 0.00 43 5318.5
20260902025049 715 292 5.0 6.0 0.00 0.00 0.00 43 488.7
20260902024846 256 292 5.0 6.0 0.00 0.00 0.00 43 5318.5
20260902024646 715 292 4.0 5.0 0.00 0.00 0.00 43 1799.4
20260902024442 311 292 4.0 5.0 0.00 0.00 0.00 43 5318.5
20260902024241 -24 292 4.0 5.0 0.00 0.00 0.00 43 5318.5
20260902024038 -31 292 4.0 4.0 0.00 0.00 0.00 43 5318.5
20260902023836 -19 315 1.0 3.0 0.00 0.00 0.00 43 567.2
20260902023634 715 315 2.0 4.0 0.00 0.00 0.00 43 1799.4
20260902023231 -17 292 5.0 5.0 0.00 0.00 0.00 42 5318.5
20260902023029 -84 292 5.0 5.0 0.00 0.00 0.00 43 5318.5
20260902022826 715 292 4.0 6.0 0.00 0.00 0.00 43 4420.8
20260902022624 715 292 6.0 6.0 0.00 0.00 0.00 42 4420.6
20260902022220 262 292 5.0 7.0 0.00 0.00 0.00 42 5318.5
20260902021820 814 292 2.0 4.0 0.00 0.00 0.00 42 5318.5
20260902021613 715 292 1.0 4.0 0.00 0.00 0.00 42 1799.4
20260902021411 136 292 3.0 4.0 0.00 0.00 0.00 42 5318.5
20260902021010 191 270 1.0 3.0 0.00 0.00 0.00 42 5318.5
20260902020805 715 315 0.0 4.0 0.00 0.00 0.00 42 488.7
20260902020604 247 292 3.0 4.0 0.00 0.00 0.00 42 5318.5
20260902020401 -31 292 4.0 4.0 0.00 0.00 0.00 41 5318.5
20260902020159 302 292 3.0 4.0 0.00 0.00 0.00 41 5318.5
20260902015757 -29 337 4.0 4.0 0.00 0.00 0.00 42 5318.5
20260902015553 -20 337 3.0 3.0 0.00 0.00 0.00 42 5318.5
20260902015353 -24 337 2.0 3.0 0.00 0.00 0.00 42 5318.5
20260902015150 32 292 2.0 3.0 0.00 0.00 0.00 42 5318.5
20260902014744 -93 292 3.0 4.0 0.00 0.00 0.00 41 5318.5
20260902014542 -13 292 3.0 3.0 0.00 0.00 0.00 42 5318.5
20260902014340 -38 292 1.0 1.0 0.00 0.00 0.00 41 5318.5
20260902013330 166 292 2.0 4.0 0.00 0.00 0.00 41 5318.5
20260902012724 182 315 4.0 5.0 0.00 0.00 0.00 41 5318.5
20260902012158 -32 337 4.0 5.0 0.00 0.00 0.00 41 5321.1
20260902012119 -32 337 4.0 5.0 0.00 0.00 0.00 41 5321.1
20260902011919 293 337 5.0 5.0 0.00 0.00 0.00 40 5318.5
20260902011713 -26 337 4.0 4.0 0.00 0.00 0.00 41 5318.5
20260902011513 715 337 2.0 3.0 0.00 0.00 0.00 41 1799.1
20260902011309 -21 337 3.0 4.0 0.00 0.00 0.00 40 5318.5
20260902010703 715 292 4.0 4.0 0.00 0.00 0.00 41 4420.8
20260902010300 715 337 3.0 4.0 0.00 0.00 0.00 40 4420.6
20260902005855 -86 292 4.0 5.0 0.00 0.00 0.00 40 5318.5
20260902005653 78 292 4.0 4.0 0.00 0.00 0.00 41 5318.5
20260902005451 715 292 3.0 4.0 0.00 0.00 0.00 40 4420.8
20260902005248 630 292 3.0 3.0 0.00 0.00 0.00 40 5318.5
20260902005047 157 292 1.0 5.0 0.00 0.00 0.00 40 5318.5
20260902004844 118 270 1.0 5.0 0.00 0.00 0.00 40 5318.5
20260902004440 715 337 3.0 3.0 0.00 0.00 0.00 40 1799.4
20260902004238 267 292 3.0 4.0 0.00 0.00 0.00 40 5318.5
20260902004037 228 292 3.0 4.0 0.00 0.00 0.00 39 5318.5
20260902003835 322 292 4.0 4.0 0.00 0.00 0.00 39 5318.5
20260902003632 715 337 3.0 3.0 0.00 0.00 0.00 40 4421.0
20260902003433 -27 337 2.0 3.0 0.00 0.00 0.00 40 5318.5
20260902003232 -31 337 2.0 2.0 0.00 0.00 0.00 40 5318.5
20260902003026 715 337 2.0 2.0 0.00 0.00 0.00 39 1799.4
20260902002826 -26 337 1.0 2.0 0.00 0.00 0.00 39 5318.5
20260902002622 -16 337 2.0 3.0 0.00 0.00 0.00 39 5318.5
20260902001813 -56 337 2.0 4.0 0.00 0.00 0.00 39 5318.5
20260902001611 -95 337 3.0 4.0 0.00 0.00 0.00 39 5318.5
20260902001409 32 337 4.0 4.0 0.00 0.00 0.00 39 5320.2
20260902001207 927 337 3.0 4.0 0.00 0.00 0.00 39 5318.5
20260902001019 538 337 3.0 4.0 0.00 0.00 0.00 39 5318.5
20260902000803 147 337 3.0 4.0 0.00 0.00 0.00 39 5318.5
20260902000505 203 337 3.0 4.0 0.00 0.00 0.00 39 5318.5
20260902000359 203 337 3.0 4.0 0.00 0.00 0.00 39 5318.5
20260901235348 274 337 3.0 3.0 0.00 0.00 0.00 39 5318.5
20260901234747 -23 292 3.0 4.0 0.00 0.00 0.00 38 5318.5
20260901234540 715 337 3.0 3.0 0.00 0.00 0.00 38 4420.7
20260901234341 -17 337 3.0 5.0 0.00 0.00 0.00 39 4010.3
20260901233935 -12 292 3.0 5.0 0.00 0.00 0.00 38 5318.5
20260901233733 -15 292 4.0 5.0 0.00 0.00 0.00 38 5318.5
20260901233530 -65 292 4.0 4.0 0.00 0.00 0.00 38 5318.5
20260901233328 715 292 4.0 5.0 0.00 0.00 0.00 37 1799.4